Flag for U.S.A. Weather past 2 weeks in Greeley, Colorado, U.S.A.

Now
70 °F

Clear.


Feels Like: 70 °F
Forecast: 54 / 90 °F
Wind: 5 mph from Southeast

Location: Greeley / Weld

Current Time: Aug 28, 2015 at 9:49:28 PM

Latest Report: Aug 28, 2015 at 8:55 PM


Visibility: 10 mi

Pressure: 30.22 "Hg (25.61 "Hg at 1424m altitude)

Humidity: 40%

Dew point: 45 °F

Location of GreeleyLocation

Historic Weather in Greeley — Graph

°F

Greeley temperature yesterday

Maximum temperature yesterday: 86 °F (at 12:55 PM)
Minimum temperature yesterday: 57 °F (at 1:55 AM)
Average temperature yesterday: 72 °F

Past Weeks' High & Low Weather Summary

 TemperatureHumidityPressure
High100 °F (Aug 15, 2:55 PM)94% (Aug 17, 5:35 AM)30.36 "Hg (Aug 17, 5:35 AM)
Low45 °F (Aug 23, 3:15 AM)12% (Aug 21, 4:35 PM)29.80 "Hg (Aug 21, 6:15 PM)
Average68 °F57%30.11 "Hg
* Reported Aug 13 8:15 PM — Aug 28 8:35 PM, Greeley, Weather by CustomWeather, © 2015

Note: Actual official high and low records may vary slightly from our data, if they occured in-between our weather recording intervals... More about our weather records

Advertising

Greeley weather history for previous 24 hours

 ConditionsComfort  
Time TempWeatherWind HumidityBarometerVisibility
8:35 PM
Fri, Aug 28
72 °FSunny.No wind38%30.21 "Hg7 mi
8:15 PM72 °FSunny.No wind41%30.20 "Hg5 mi
7:55 PM73 °FSunny.No wind38%30.19 "Hg10 mi
7:35 PM77 °FSunny.No wind32%30.18 "Hg10 mi
7:15 PM79 °FSunny.No wind32%30.17 "Hg9 mi
6:55 PM82 °FSunny.No wind26%30.16 "Hg10 mi
6:35 PM84 °FSunny.3 mph25%30.16 "Hg10 mi
6:15 PM84 °FSunny.3 mph23%30.16 "Hg10 mi
5:55 PM84 °FSunny.5 mph20%30.16 "Hg10 mi
5:35 PM84 °FSunny.6 mph20%30.16 "Hg10 mi
5:15 PM84 °FSunny.5 mph19%30.16 "Hg10 mi
4:55 PM84 °FSunny.7 mph19%30.16 "Hg7 mi
4:35 PM84 °FSunny.5 mph19%30.16 "Hg9 mi
3:55 PM84 °FSunny.7 mph20%30.16 "Hg9 mi
3:35 PM84 °FSunny.8 mph23%30.17 "Hg7 mi
3:15 PM84 °FSunny.8 mph25%30.17 "Hg10 mi
2:55 PM84 °FSunny.8 mph25%30.18 "Hg9 mi
2:35 PM84 °FSunny.10 mph25%30.18 "Hg10 mi
2:15 PM84 °FSunny.13 mph25%30.19 "Hg10 mi
1:55 PM84 °FSunny.12 mph25%30.19 "Hg10 mi
1:35 PM84 °FSunny.14 mph25%30.19 "Hg10 mi
1:15 PM82 °FSunny.12 mph26%30.20 "Hg10 mi
12:55 PM82 °FSunny.10 mph26%30.20 "Hg10 mi
12:35 PM82 °FSunny.13 mph26%30.21 "Hg9 mi
12:15 PM82 °FSunny.14 mph28%30.22 "Hg10 mi
11:55 AM82 °FSunny.17 mph28%30.22 "Hg10 mi
11:35 AM82 °FSunny.12 mph28%30.23 "Hg10 mi
11:15 AM81 °FSunny.15 mph32%30.23 "Hg10 mi
10:55 AM79 °FSunny.8 mph39%30.23 "Hg10 mi
10:35 AM75 °FSunny.6 mph44%30.23 "Hg10 mi
10:15 AM75 °FSunny.7 mph44%30.23 "Hg10 mi
9:55 AM72 °FSunny.6 mph50%30.22 "Hg10 mi
9:35 AM72 °FPassing clouds.6 mph50%30.22 "Hg10 mi
9:15 AM70 °FSunny.5 mph50%30.22 "Hg10 mi
8:55 AM68 °FSunny.6 mph56%30.21 "Hg10 mi
8:35 AM68 °FPassing clouds.7 mph56%30.21 "Hg10 mi
8:15 AM66 °FPartly sunny.6 mph60%30.21 "Hg10 mi
7:55 AM64 °FPartly sunny.5 mph60%30.20 "Hg10 mi
7:35 AM63 °FOvercast.5 mph68%30.19 "Hg10 mi
7:15 AM63 °FOvercast.No wind64%30.19 "Hg10 mi
6:55 AM61 °FPassing clouds.No wind68%30.18 "Hg10 mi
6:35 AM59 °FClear.No wind68%30.18 "Hg10 mi
6:15 AM57 °FClear.3 mph77%30.16 "Hg10 mi
5:55 AM57 °FClear.7 mph72%30.16 "Hg10 mi
5:35 AM61 °FClear.10 mph63%30.16 "Hg10 mi
5:15 AM61 °FClear.12 mph68%30.15 "Hg10 mi
4:55 AM59 °FClear.9 mph77%30.16 "Hg10 mi
4:35 AM61 °FClear.7 mph72%30.16 "Hg10 mi
4:15 AM59 °FClear.No wind77%30.15 "Hg10 mi
3:55 AM59 °FClear.6 mph82%30.15 "Hg10 mi
3:35 AM61 °FClear.7 mph77%30.16 "Hg10 mi
3:15 AM61 °FClear.10 mph72%30.16 "Hg10 mi
2:55 AM61 °FPassing clouds.10 mph72%30.16 "Hg10 mi
2:35 AM64 °FPassing clouds.7 mph64%30.16 "Hg10 mi
2:15 AM64 °FPassing clouds.15 mph64%30.16 "Hg10 mi
1:55 AM64 °FPassing clouds.16 mph68%30.17 "Hg10 mi
1:35 AM64 °FPartly cloudy.12 mph68%30.18 "Hg10 mi
1:15 AM63 °FPartly cloudy.10 mph77%30.17 "Hg10 mi
12:55 AM63 °FClear.No wind77%30.16 "Hg10 mi
12:35 AM64 °FPassing clouds.5 mph73%30.15 "Hg10 mi
12:15 AM63 °FPassing clouds.10 mph77%30.16 "Hg10 mi
11:55 PM
Thu, Aug 27
63 °FPassing clouds.6 mph77%30.15 "Hg10 mi
11:35 PM64 °FPartly cloudy.3 mph73%30.15 "Hg10 mi
11:15 PM64 °FPartly cloudy.3 mph78%30.15 "Hg10 mi
10:35 PM63 °FClear.No wind77%30.14 "Hg10 mi
9:55 PM64 °FPassing clouds.No wind68%30.15 "Hg9 mi
9:15 PM68 °FClear.5 mph64%30.13 "Hg3 mi
Weather by CustomWeather, © 2015

See weather overviewHow to use our weather pages